| time (UTC) | temp F | wind direction | speed knots | gust knots | rain 1hr in | rain 24hr in | rain mn in | humidity % | barometer mb |
| 20260510233537 | 75 | 282 | 0.9 | 1.7 | 0.00 | 0.00 | 0.00 | 66 | 1019.1 |
| 20260510233032 | 75 | 279 | 0.9 | 1.7 | 0.00 | 0.00 | 0.00 | 63 | 1019.0 |
| 20260510232528 | 76 | 291 | 0.9 | 1.7 | 0.00 | 0.00 | 0.00 | 65 | 1019.1 |
| 20260510232024 | 77 | 291 | 0.9 | 1.7 | 0.00 | 0.00 | 0.00 | 59 | 1018.8 |
| 20260510231522 | 79 | 291 | 0.9 | 0.9 | 0.00 | 0.00 | 0.00 | 54 | 1019.0 |
| 20260510231019 | 80 | 206 | 0.0 | 0.9 | 0.00 | 0.00 | 0.00 | 51 | 1019.0 |
| 20260510230514 | 81 | 199 | 0.0 | 0.0 | 0.00 | 0.00 | 0.00 | 54 | 1018.8 |
| 20260510230011 | 81 | 219 | 0.0 | 0.9 | 0.00 | 0.00 | 0.00 | 53 | 1019.0 |
| 20260510225508 | 81 | 285 | 0.9 | 0.9 | 0.00 | 0.00 | 0.00 | 53 | 1019.1 |
| 20260510225003 | 82 | 225 | 0.9 | 0.9 | 0.00 | 0.00 | 0.00 | 52 | 1019.2 |
| 20260510224500 | 82 | 288 | 0.9 | 1.7 | 0.00 | 0.00 | 0.00 | 52 | 1019.0 |
| 20260510223956 | 81 | 292 | 0.9 | 1.7 | 0.00 | 0.00 | 0.00 | 54 | 1018.9 |
| 20260510223454 | 81 | 64 | 0.0 | 0.9 | 0.00 | 0.00 | 0.00 | 51 | 1019.0 |
| 20260510222951 | 80 | 93 | 0.9 | 1.7 | 0.00 | 0.00 | 0.00 | 47 | 1018.9 |
| 20260510222449 | 80 | 102 | 0.9 | 0.9 | 0.00 | 0.00 | 0.00 | 50 | 1019.2 |
| 20260510221944 | 80 | 64 | 0.9 | 1.7 | 0.00 | 0.00 | 0.00 | 48 | 1019.1 |
| 20260510221441 | 80 | 91 | 0.9 | 0.9 | 0.00 | 0.00 | 0.00 | 51 | 1019.1 |
| 20260510220937 | 80 | 72 | 0.9 | 0.9 | 0.00 | 0.00 | 0.00 | 47 | 1019.1 |
| 20260510220432 | 80 | 85 | 0.9 | 1.7 | 0.00 | 0.00 | 0.00 | 48 | 1019.2 |
| 20260510215929 | 80 | 40 | 1.7 | 1.7 | 0.00 | 0.00 | 0.00 | 45 | 1019.2 |
| 20260510215427 | 80 | 67 | 0.9 | 1.7 | 0.00 | 0.00 | 0.00 | 48 | 1019.2 |
| 20260510214925 | 80 | 58 | 1.7 | 1.7 | 0.00 | 0.00 | 0.00 | 50 | 1019.2 |
| 20260510214421 | 80 | 70 | 0.9 | 1.7 | 0.00 | 0.00 | 0.00 | 51 | 1019.2 |
| 20260510213918 | 80 | 74 | 0.9 | 0.9 | 0.00 | 0.00 | 0.00 | 49 | 1019.1 |
| 20260510213415 | 80 | 72 | 0.9 | 1.7 | 0.00 | 0.00 | 0.00 | 45 | 1019.0 |
| 20260510212911 | 80 | 66 | 0.9 | 1.7 | 0.00 | 0.00 | 0.00 | 45 | 1019.2 |
| 20260510212408 | 81 | 79 | 0.9 | 1.7 | 0.00 | 0.00 | 0.00 | 48 | 1019.2 |
| 20260510211904 | 81 | 102 | 0.9 | 0.9 | 0.00 | 0.00 | 0.00 | 45 | 1019.3 |
| 20260510211402 | 82 | 96 | 0.9 | 0.9 | 0.00 | 0.00 | 0.00 | 43 | 1019.3 |
| 20260510210902 | 83 | 103 | 0.0 | 0.0 | 0.00 | 0.00 | 0.00 | 44 | 1019.2 |
| 20260510210357 | 84 | 143 | 0.0 | 0.0 | 0.00 | 0.00 | 0.00 | 43 | 1019.3 |
| 20260510205856 | 84 | 131 | 0.0 | 0.9 | 0.00 | 0.00 | 0.00 | 40 | 1019.5 |
| 20260510205352 | 85 | 130 | 0.0 | 0.0 | 0.00 | 0.00 | 0.00 | 37 | 1019.4 |
| 20260510204848 | 88 | 150 | 0.0 | 0.0 | 0.00 | 0.00 | 0.00 | 38 | 1019.3 |
| 20260510204345 | 86 | 149 | 0.0 | 0.0 | 0.00 | 0.00 | 0.00 | 38 | 1019.3 |
| 20260510203841 | 86 | 125 | 0.0 | 0.9 | 0.00 | 0.00 | 0.00 | 40 | 1019.6 |
| 20260510203339 | 89 | 153 | 0.0 | 0.0 | 0.00 | 0.00 | 0.00 | 39 | 1019.2 |
| 20260510202834 | 87 | 148 | 0.0 | 0.0 | 0.00 | 0.00 | 0.00 | 40 | 1019.5 |
| 20260510202329 | 85 | 146 | 0.0 | 0.0 | 0.00 | 0.00 | 0.00 | 42 | 1019.5 |
| 20260510201827 | 85 | 150 | 0.0 | 0.0 | 0.00 | 0.00 | 0.00 | 40 | 1019.8 |
| 20260510201324 | 84 | 151 | 0.0 | 0.0 | 0.00 | 0.00 | 0.00 | 40 | 1019.8 |
| 20260510200821 | 84 | 156 | 0.0 | 0.0 | 0.00 | 0.00 | 0.00 | 43 | 1019.7 |
| 20260510200318 | 82 | 137 | 0.0 | 0.9 | 0.00 | 0.00 | 0.00 | 42 | 1019.7 |
| 20260510195814 | 82 | 131 | 0.0 | 0.9 | 0.00 | 0.00 | 0.00 | 42 | 1019.9 |
| 20260510195311 | 84 | 149 | 0.9 | 0.9 | 0.00 | 0.00 | 0.00 | 42 | 1019.9 |
| 20260510194810 | 82 | 147 | 0.9 | 1.7 | 0.00 | 0.00 | 0.00 | 43 | 1020.0 |
| 20260510194307 | 84 | 149 | 0.9 | 0.9 | 0.00 | 0.00 | 0.00 | 40 | 1020.1 |
| 20260510193803 | 83 | 141 | 0.0 | 0.9 | 0.00 | 0.00 | 0.00 | 41 | 1019.9 |
| 20260510193258 | 84 | 132 | 0.0 | 1.7 | 0.00 | 0.00 | 0.00 | 38 | 1020.0 |
| 20260510192754 | 83 | 174 | 0.9 | 0.9 | 0.00 | 0.00 | 0.00 | 41 | 1020.1 |
| 20260510192249 | 83 | 182 | 1.7 | 1.7 | 0.00 | 0.00 | 0.00 | 41 | 1020.1 |
| 20260510191746 | 83 | 182 | 0.9 | 0.9 | 0.00 | 0.00 | 0.00 | 41 | 1020.1 |
| 20260510191241 | 84 | 191 | 0.9 | 1.7 | 0.00 | 0.00 | 0.00 | 39 | 1020.1 |
| 20260510190740 | 84 | 168 | 0.0 | 0.9 | 0.00 | 0.00 | 0.00 | 43 | 1020.3 |
| 20260510190236 | 83 | 193 | 1.7 | 1.7 | 0.00 | 0.00 | 0.00 | 41 | 1020.3 |
| 20260510185733 | 82 | 151 | 0.0 | 0.9 | 0.00 | 0.00 | 0.00 | 43 | 1020.5 |
| 20260510185231 | 81 | 155 | 0.0 | 0.0 | 0.00 | 0.00 | 0.00 | 46 | 1020.5 |
| 20260510184727 | 79 | 86 | 0.9 | 0.9 | 0.00 | 0.00 | 0.00 | 45 | 1020.5 |
| 20260510184224 | 79 | 113 | 0.9 | 0.9 | 0.00 | 0.00 | 0.00 | 46 | 1020.7 |
| 20260510183719 | 80 | 101 | 0.9 | 0.9 | 0.00 | 0.00 | 0.00 | 44 | 1020.5 |
| 20260510183214 | 80 | 104 | 0.9 | 0.9 | 0.00 | 0.00 | 0.00 | 40 | 1020.3 |
| 20260510182711 | 80 | 148 | 0.9 | 1.7 | 0.00 | 0.00 | 0.00 | 39 | 1020.4 |
| 20260510182207 | 80 | 124 | 0.9 | 0.9 | 0.00 | 0.00 | 0.00 | 37 | 1020.7 |
| 20260510181704 | 81 | 134 | 0.9 | 0.9 | 0.00 | 0.00 | 0.00 | 33 | 1020.4 |
| 20260510181200 | 84 | 152 | 0.0 | 0.0 | 0.00 | 0.00 | 0.00 | 35 | 1020.4 |
| 20260510180657 | 82 | 155 | 0.0 | 0.0 | 0.00 | 0.00 | 0.00 | 38 | 1020.5 |
| 20260510180155 | 79 | 129 | 0.9 | 1.7 | 0.00 | 0.00 | 0.00 | 35 | 1020.4 |
| 20260510175650 | 78 | 120 | 0.9 | 1.7 | 0.00 | 0.00 | 0.00 | 35 | 1020.6 |
| 20260510175146 | 79 | 116 | 0.9 | 0.9 | 0.00 | 0.00 | 0.00 | 37 | 1020.5 |
| 20260510174644 | 79 | 144 | 0.0 | 0.9 | 0.00 | 0.00 | 0.00 | 36 | 1020.7 |
| 20260510174141 | 79 | 122 | 0.9 | 0.9 | 0.00 | 0.00 | 0.00 | 37 | 1020.8 |
| 20260510173637 | 78 | 51 | 1.7 | 2.6 | 0.00 | 0.00 | 0.00 | 36 | 1020.6 |
| 20260510173133 | 77 | 77 | 0.9 | 1.7 | 0.00 | 0.00 | 0.00 | 43 | 1020.7 |
| 20260510172629 | 77 | 78 | 0.9 | 2.6 | 0.00 | 0.00 | 0.00 | 43 | 1020.9 |
| 20260510172125 | 78 | 109 | 1.7 | 1.7 | 0.00 | 0.00 | 0.00 | 45 | 1020.9 |
| 20260510171622 | 78 | 92 | 0.9 | 1.7 | 0.00 | 0.00 | 0.00 | 46 | 1020.8 |
| 20260510171120 | 78 | 123 | 0.0 | 0.9 | 0.00 | 0.00 | 0.00 | 43 | 1020.8 |
| 20260510170615 | 79 | 135 | 0.9 | 0.9 | 0.00 | 0.00 | 0.00 | 48 | 1020.9 |
| 20260510170112 | 80 | 172 | 0.9 | 1.7 | 0.00 | 0.00 | 0.00 | 49 | 1020.8 |
| 20260510165608 | 78 | 156 | 0.9 | 0.9 | 0.00 | 0.00 | 0.00 | 51 | 1021.1 |
| 20260510165104 | 77 | 128 | 0.9 | 1.7 | 0.00 | 0.00 | 0.00 | 50 | 1021.0 |
| 20260510164602 | 78 | 128 | 0.9 | 1.7 | 0.00 | 0.00 | 0.00 | 50 | 1021.1 |
| 20260510164058 | 79 | 133 | 0.9 | 0.9 | 0.00 | 0.00 | 0.00 | 44 | 1021.1 |
| 20260510163553 | 81 | 134 | 0.9 | 0.9 | 0.00 | 0.00 | 0.00 | 42 | 1021.0 |
| 20260510163050 | 85 | 158 | 0.0 | 0.9 | 0.00 | 0.00 | 0.00 | 35 | 1021.1 |
| 20260510162545 | 85 | 161 | 0.0 | 0.9 | 0.00 | 0.00 | 0.00 | 39 | 1021.0 |
| 20260510162042 | 85 | 172 | 0.0 | 0.9 | 0.00 | 0.00 | 0.00 | 38 | 1021.3 |
| 20260510161537 | 85 | 153 | 0.0 | 0.0 | 0.00 | 0.00 | 0.00 | 40 | 1021.2 |
| 20260510161034 | 85 | 163 | 0.0 | 0.0 | 0.00 | 0.00 | 0.00 | 48 | 1021.0 |
| 20260510160532 | 85 | 164 | 0.0 | 0.9 | 0.00 | 0.00 | 0.00 | 49 | 1021.1 |
| 20260510160031 | 85 | 158 | 0.0 | 0.0 | 0.00 | 0.00 | 0.00 | 55 | 1020.9 |
| 20260510155528 | 85 | 158 | 0.0 | 0.0 | 0.00 | 0.00 | 0.00 | 59 | 1020.9 |
| 20260510155024 | 83 | 158 | 0.0 | 0.0 | 0.00 | 0.00 | 0.00 | 61 | 1021.0 |
| 20260510154520 | 82 | 158 | 0.0 | 0.0 | 0.00 | 0.00 | 0.00 | 63 | 1021.2 |
| 20260510154020 | 81 | 158 | 0.0 | 0.0 | 0.00 | 0.00 | 0.00 | 64 | 1021.0 |
| 20260510153515 | 80 | 159 | 0.0 | 0.0 | 0.00 | 0.00 | 0.00 | 69 | 1020.9 |
| 20260510153013 | 78 | 183 | 0.9 | 0.9 | 0.00 | 0.00 | 0.00 | 68 | 1020.9 |
| 20260510152510 | 77 | 153 | 0.0 | 0.9 | 0.00 | 0.00 | 0.00 | 72 | 1021.1 |
| 20260510152006 | 76 | 151 | 1.7 | 1.7 | 0.00 | 0.00 | 0.00 | 71 | 1021.0 |
| 20260510151503 | 74 | 145 | 0.9 | 0.9 | 0.00 | 0.00 | 0.00 | 74 | 1020.9 |
| 20260510151000 | 73 | 132 | 0.9 | 1.7 | 0.00 | 0.00 | 0.00 | 76 | 1021.0 |
| 20260510150455 | 73 | 133 | 1.7 | 1.7 | 0.00 | 0.00 | 0.00 | 75 | 1020.9 |
| 20260510145951 | 75 | 141 | 0.9 | 0.9 | 0.00 | 0.00 | 0.00 | 71 | 1020.9 |
| 20260510145448 | 77 | 163 | 0.9 | 0.9 | 0.00 | 0.00 | 0.00 | 71 | 1021.0 |
| 20260510144944 | 76 | 175 | 0.9 | 0.9 | 0.00 | 0.00 | 0.00 | 72 | 1021.0 |
| 20260510144441 | 76 | 183 | 1.7 | 1.7 | 0.00 | 0.00 | 0.00 | 70 | 1021.3 |
| 20260510143937 | 77 | 167 | 0.0 | 0.9 | 0.00 | 0.00 | 0.00 | 72 | 1021.1 |
| 20260510143432 | 76 | 181 | 0.9 | 1.7 | 0.00 | 0.00 | 0.00 | 71 | 1021.0 |
| 20260510142930 | 76 | 155 | 0.9 | 0.9 | 0.00 | 0.00 | 0.00 | 72 | 1021.2 |
| 20260510142427 | 76 | 168 | 0.9 | 0.9 | 0.00 | 0.00 | 0.00 | 73 | 1020.8 |
| 20260510141923 | 75 | 171 | 0.9 | 1.7 | 0.00 | 0.00 | 0.00 | 74 | 1021.0 |
| 20260510141420 | 75 | 170 | 0.9 | 0.9 | 0.00 | 0.00 | 0.00 | 74 | 1020.8 |
| 20260510140917 | 74 | 171 | 0.9 | 0.9 | 0.00 | 0.00 | 0.00 | 77 | 1021.0 |
| 20260510140414 | 74 | 178 | 0.9 | 0.9 | 0.00 | 0.00 | 0.00 | 75 | 1021.0 |
| 20260510135913 | 74 | 174 | 0.9 | 0.9 | 0.00 | 0.00 | 0.00 | 75 | 1020.8 |
| 20260510135409 | 74 | 155 | 0.0 | 0.9 | 0.00 | 0.00 | 0.00 | 77 | 1020.7 |
| 20260510134907 | 72 | 170 | 0.0 | 0.9 | 0.00 | 0.00 | 0.00 | 79 | 1020.9 |
| 20260510134403 | 72 | 178 | 0.9 | 1.7 | 0.00 | 0.00 | 0.00 | 80 | 1020.9 |
| 20260510133859 | 71 | 171 | 0.9 | 1.7 | 0.00 | 0.00 | 0.00 | 81 | 1021.0 |
| 20260510133355 | 71 | 170 | 0.9 | 0.9 | 0.00 | 0.00 | 0.00 | 83 | 1020.9 |
| 20260510132851 | 70 | 163 | 0.9 | 1.7 | 0.00 | 0.00 | 0.00 | 84 | 1021.0 |
| 20260510132349 | 70 | 156 | 0.0 | 0.9 | 0.00 | 0.00 | 0.00 | 85 | 1020.9 |
| 20260510131846 | 70 | 168 | 0.9 | 1.7 | 0.00 | 0.00 | 0.00 | 87 | 1020.8 |
| 20260510131343 | 68 | 161 | 0.9 | 1.7 | 0.00 | 0.00 | 0.00 | 89 | 1020.7 |
| 20260510130839 | 67 | 155 | 0.9 | 0.9 | 0.00 | 0.00 | 0.00 | 90 | 1021.0 |
| 20260510130337 | 66 | 114 | 0.9 | 1.7 | 0.00 | 0.00 | 0.00 | 91 | 1020.8 |
| 20260510125833 | 66 | 107 | 0.9 | 1.7 | 0.00 | 0.00 | 0.00 | 91 | 1020.9 |
| 20260510125329 | 65 | 109 | 0.9 | 1.7 | 0.00 | 0.00 | 0.00 | 92 | 1020.9 |
| 20260510124826 | 66 | 104 | 0.9 | 0.9 | 0.00 | 0.00 | 0.00 | 93 | 1020.8 |
| 20260510124323 | 65 | 122 | 0.0 | 1.7 | 0.00 | 0.00 | 0.00 | 95 | 1020.8 |
| 20260510123819 | 65 | 84 | 0.9 | 1.7 | 0.00 | 0.00 | 0.00 | 97 | 1020.8 |
| 20260510123315 | 64 | 99 | 0.9 | 0.9 | 0.00 | 0.00 | 0.00 | 98 | 1020.6 |
| 20260510122811 | 65 | 106 | 0.0 | 0.0 | 0.00 | 0.00 | 0.00 | 98 | 1020.7 |
| 20260510122307 | 64 | 173 | 0.0 | 0.0 | 0.00 | 0.00 | 0.00 | 99 | 1020.6 |
| 20260510121804 | 62 | 311 | 0.0 | 0.0 | 0.00 | 0.00 | 0.00 | 99 | 1020.6 |
| 20260510121302 | 61 | 334 | 0.0 | 0.0 | 0.00 | 0.00 | 0.00 | 99 | 1020.5 |
| 20260510120758 | 60 | 313 | 0.0 | 0.0 | 0.00 | 0.00 | 0.00 | 99 | 1020.5 |
| 20260510120255 | 60 | 307 | 0.0 | 0.0 | 0.00 | 0.00 | 0.00 | 99 | 1020.2 |
| 20260510115751 | 59 | 300 | 0.9 | 0.9 | 0.00 | 0.00 | 0.00 | 99 | 1020.5 |
| 20260510115249 | 58 | 306 | 0.9 | 1.7 | 0.00 | 0.00 | 0.00 | 99 | 1020.3 |
| 20260510114744 | 57 | 308 | 1.7 | 1.7 | 0.00 | 0.00 | 0.00 | 99 | 1020.5 |
| 20260510114242 | 57 | 296 | 1.7 | 1.7 | 0.00 | 0.00 | 0.00 | 99 | 1020.2 |
| 20260510113737 | 57 | 299 | 1.7 | 1.7 | 0.00 | 0.00 | 0.00 | 99 | 1020.1 |
| 20260510113234 | 58 | 290 | 0.9 | 1.7 | 0.00 | 0.00 | 0.00 | 99 | 1020.0 |
| 20260510112730 | 57 | 296 | 1.7 | 1.7 | 0.00 | 0.00 | 0.00 | 99 | 1020.1 |
| 20260510112227 | 57 | 294 | 0.9 | 1.7 | 0.00 | 0.00 | 0.00 | 99 | 1020.0 |
| 20260510111723 | 57 | 296 | 0.9 | 1.7 | 0.00 | 0.00 | 0.00 | 99 | 1019.7 |
| 20260510111220 | 56 | 283 | 0.9 | 1.7 | 0.00 | 0.00 | 0.00 | 99 | 1019.7 |
| 20260510110720 | 56 | 299 | 1.7 | 2.6 | 0.00 | 0.00 | 0.00 | 99 | 1019.5 |
| 20260510110218 | 56 | 292 | 1.7 | 2.6 | 0.00 | 0.00 | 0.00 | 99 | 1019.4 |
| 20260510105717 | 56 | 288 | 1.7 | 2.6 | 0.00 | 0.00 | 0.00 | 99 | 1019.2 |
| 20260510105212 | 56 | 301 | 1.7 | 1.7 | 0.00 | 0.00 | 0.00 | 99 | 1019.3 |
| 20260510104709 | 56 | 299 | 1.7 | 1.7 | 0.00 | 0.00 | 0.00 | 99 | 1019.1 |
| 20260510104206 | 56 | 293 | 1.7 | 1.7 | 0.00 | 0.00 | 0.00 | 99 | 1019.1 |
| 20260510103703 | 56 | 291 | 1.7 | 2.6 | 0.00 | 0.00 | 0.00 | 99 | 1019.1 |
| 20260510103200 | 56 | 295 | 1.7 | 2.6 | 0.00 | 0.00 | 0.00 | 99 | 1018.8 |
| 20260510102700 | 56 | 295 | 1.7 | 1.7 | 0.00 | 0.00 | 0.00 | 99 | 1018.8 |
| 20260510102156 | 56 | 294 | 1.7 | 1.7 | 0.00 | 0.00 | 0.00 | 99 | 1018.9 |
| 20260510101653 | 56 | 300 | 1.7 | 1.7 | 0.00 | 0.00 | 0.00 | 99 | 1018.9 |
| 20260510101152 | 57 | 285 | 1.7 | 1.7 | 0.00 | 0.00 | 0.00 | 99 | 1018.9 |
| 20260510100647 | 57 | 295 | 1.7 | 1.7 | 0.00 | 0.00 | 0.00 | 99 | 1019.0 |
| 20260510100145 | 57 | 298 | 1.7 | 1.7 | 0.00 | 0.00 | 0.00 | 99 | 1018.8 |
| 20260510095640 | 57 | 293 | 0.9 | 2.6 | 0.00 | 0.00 | 0.00 | 99 | 1018.8 |
| 20260510095136 | 57 | 306 | 1.7 | 1.7 | 0.00 | 0.00 | 0.00 | 99 | 1019.1 |
| 20260510094634 | 57 | 296 | 1.7 | 1.7 | 0.00 | 0.00 | 0.00 | 99 | 1018.7 |
| 20260510094131 | 57 | 298 | 1.7 | 2.6 | 0.00 | 0.00 | 0.00 | 99 | 1018.7 |
| 20260510093621 | 57 | 297 | 1.7 | 1.7 | 0.00 | 0.00 | 0.00 | 99 | 1018.8 |
| 20260510093118 | 57 | 287 | 1.7 | 1.7 | 0.00 | 0.00 | 0.00 | 99 | 1018.7 |
| 20260510092615 | 56 | 302 | 1.7 | 3.5 | 0.00 | 0.00 | 0.00 | 99 | 1018.4 |
| 20260510092115 | 57 | 295 | 1.7 | 1.7 | 0.00 | 0.00 | 0.00 | 99 | 1018.3 |
| 20260510091611 | 57 | 295 | 1.7 | 1.7 | 0.00 | 0.00 | 0.00 | 99 | 1018.4 |
| 20260510091107 | 57 | 300 | 1.7 | 1.7 | 0.00 | 0.00 | 0.00 | 99 | 1018.3 |
| 20260510090605 | 57 | 295 | 1.7 | 1.7 | 0.00 | 0.00 | 0.00 | 99 | 1018.2 |
| 20260510090100 | 57 | 290 | 1.7 | 1.7 | 0.00 | 0.00 | 0.00 | 99 | 1018.2 |
| 20260510085555 | 57 | 294 | 1.7 | 2.6 | 0.00 | 0.00 | 0.00 | 99 | 1018.1 |
| 20260510085051 | 57 | 298 | 1.7 | 1.7 | 0.00 | 0.00 | 0.00 | 99 | 1018.2 |
| 20260510084548 | 57 | 294 | 1.7 | 3.5 | 0.00 | 0.00 | 0.00 | 99 | 1018.0 |
| 20260510084045 | 57 | 289 | 1.7 | 1.7 | 0.00 | 0.00 | 0.00 | 99 | 1018.0 |
| 20260510083541 | 57 | 294 | 1.7 | 2.6 | 0.00 | 0.00 | 0.00 | 99 | 1017.9 |
| 20260510083038 | 57 | 291 | 1.7 | 2.6 | 0.00 | 0.00 | 0.00 | 99 | 1018.0 |
| 20260510082535 | 57 | 299 | 2.6 | 2.6 | 0.00 | 0.00 | 0.00 | 99 | 1017.6 |
| 20260510082030 | 57 | 296 | 1.7 | 1.7 | 0.00 | 0.00 | 0.00 | 99 | 1017.8 |
| 20260510081525 | 57 | 294 | 1.7 | 2.6 | 0.00 | 0.00 | 0.00 | 99 | 1017.8 |
| 20260510081021 | 57 | 296 | 2.6 | 2.6 | 0.00 | 0.00 | 0.00 | 99 | 1017.7 |
| 20260510080520 | 57 | 293 | 1.7 | 2.6 | 0.00 | 0.00 | 0.00 | 99 | 1017.5 |
| 20260510080017 | 57 | 293 | 1.7 | 1.7 | 0.00 | 0.00 | 0.00 | 99 | 1017.5 |
| 20260510075515 | 57 | 294 | 1.7 | 2.6 | 0.00 | 0.00 | 0.00 | 99 | 1017.4 |
| 20260510075011 | 57 | 294 | 1.7 | 2.6 | 0.00 | 0.00 | 0.00 | 99 | 1017.5 |
| 20260510074510 | 57 | 290 | 1.7 | 2.6 | 0.00 | 0.00 | 0.00 | 99 | 1017.4 |
| 20260510074004 | 57 | 298 | 1.7 | 1.7 | 0.00 | 0.00 | 0.00 | 99 | 1017.5 |
| 20260510073501 | 57 | 304 | 1.7 | 1.7 | 0.00 | 0.00 | 0.00 | 99 | 1017.5 |
| 20260510072957 | 57 | 296 | 1.7 | 2.6 | 0.00 | 0.00 | 0.00 | 99 | 1017.4 |
| 20260510072454 | 58 | 306 | 1.7 | 2.6 | 0.00 | 0.00 | 0.00 | 99 | 1017.4 |
| 20260510071950 | 57 | 290 | 1.7 | 1.7 | 0.00 | 0.00 | 0.00 | 99 | 1017.5 |
| 20260510071446 | 57 | 296 | 1.7 | 2.6 | 0.00 | 0.00 | 0.00 | 99 | 1017.4 |
| 20260510070944 | 58 | 290 | 1.7 | 1.7 | 0.00 | 0.00 | 0.00 | 99 | 1017.4 |
| 20260510070442 | 58 | 299 | 1.7 | 1.7 | 0.00 | 0.00 | 0.00 | 99 | 1017.4 |
| 20260510065937 | 58 | 303 | 1.7 | 3.5 | 0.00 | 0.00 | 0.00 | 99 | 1017.4 |
| 20260510065434 | 57 | 295 | 1.7 | 3.5 | 0.00 | 0.00 | 0.00 | 99 | 1017.3 |
| 20260510064930 | 57 | 295 | 1.7 | 2.6 | 0.00 | 0.00 | 0.00 | 99 | 1017.3 |
| 20260510064428 | 58 | 298 | 1.7 | 2.6 | 0.00 | 0.00 | 0.00 | 98 | 1017.2 |
| 20260510063924 | 58 | 298 | 1.7 | 2.6 | 0.00 | 0.00 | 0.00 | 98 | 1017.3 |
| 20260510063421 | 58 | 293 | 1.7 | 2.6 | 0.00 | 0.00 | 0.00 | 98 | 1017.2 |
| 20260510062919 | 58 | 292 | 1.7 | 1.7 | 0.00 | 0.00 | 0.00 | 98 | 1017.1 |
| 20260510062414 | 58 | 283 | 1.7 | 1.7 | 0.00 | 0.00 | 0.00 | 98 | 1017.3 |
| 20260510061910 | 58 | 295 | 1.7 | 2.6 | 0.00 | 0.00 | 0.00 | 98 | 1017.3 |
| 20260510061407 | 58 | 305 | 1.7 | 2.6 | 0.00 | 0.00 | 0.00 | 98 | 1017.4 |
| 20260510060902 | 58 | 310 | 1.7 | 2.6 | 0.00 | 0.00 | 0.00 | 98 | 1017.5 |
| 20260510060359 | 58 | 297 | 1.7 | 2.6 | 0.00 | 0.00 | 0.00 | 98 | 1017.4 |
| 20260510055856 | 58 | 298 | 1.7 | 1.7 | 0.00 | 0.00 | 0.00 | 98 | 1017.4 |
| 20260510055355 | 58 | 295 | 1.7 | 2.6 | 0.00 | 0.00 | 0.00 | 97 | 1017.4 |
| 20260510054854 | 59 | 301 | 1.7 | 2.6 | 0.00 | 0.00 | 0.00 | 97 | 1017.4 |
| 20260510054350 | 59 | 289 | 1.7 | 2.6 | 0.00 | 0.00 | 0.00 | 97 | 1017.5 |
| 20260510053845 | 59 | 284 | 1.7 | 2.6 | 0.00 | 0.00 | 0.00 | 97 | 1017.5 |
| 20260510053340 | 59 | 291 | 0.9 | 1.7 | 0.00 | 0.00 | 0.00 | 97 | 1017.6 |
| 20260510052837 | 59 | 278 | 1.7 | 1.7 | 0.00 | 0.00 | 0.00 | 97 | 1017.4 |
| 20260510052333 | 59 | 278 | 1.7 | 1.7 | 0.00 | 0.00 | 0.00 | 97 | 1017.8 |
| 20260510051829 | 59 | 291 | 1.7 | 2.6 | 0.00 | 0.00 | 0.00 | 97 | 1017.5 |
| 20260510051326 | 59 | 297 | 1.7 | 1.7 | 0.00 | 0.00 | 0.00 | 97 | 1017.8 |
| 20260510050823 | 59 | 292 | 1.7 | 2.6 | 0.00 | 0.00 | 0.00 | 97 | 1017.7 |
| 20260510050319 | 59 | 296 | 1.7 | 2.6 | 0.00 | 0.00 | 0.00 | 96 | 1017.8 |
| 20260510045817 | 59 | 301 | 1.7 | 2.6 | 0.00 | 0.00 | 0.00 | 96 | 1017.8 |
| 20260510045313 | 59 | 296 | 1.7 | 2.6 | 0.00 | 0.00 | 0.00 | 96 | 1017.7 |
| 20260510044811 | 59 | 291 | 1.7 | 2.6 | 0.00 | 0.00 | 0.00 | 96 | 1017.9 |
| 20260510044308 | 59 | 296 | 1.7 | 1.7 | 0.00 | 0.00 | 0.00 | 96 | 1017.9 |
| 20260510043804 | 60 | 288 | 1.7 | 1.7 | 0.00 | 0.00 | 0.00 | 96 | 1017.7 |
| 20260510043300 | 60 | 300 | 1.7 | 1.7 | 0.00 | 0.00 | 0.00 | 96 | 1017.9 |
| 20260510042758 | 60 | 293 | 1.7 | 2.6 | 0.00 | 0.00 | 0.00 | 96 | 1017.8 |
| 20260510042253 | 60 | 301 | 1.7 | 2.6 | 0.00 | 0.00 | 0.00 | 96 | 1017.9 |
| 20260510041750 | 60 | 299 | 1.7 | 3.5 | 0.00 | 0.00 | 0.00 | 96 | 1017.8 |
| 20260510041248 | 60 | 296 | 1.7 | 1.7 | 0.00 | 0.00 | 0.00 | 96 | 1017.8 |
| 20260510040745 | 60 | 302 | 1.7 | 2.6 | 0.00 | 0.00 | 0.00 | 95 | 1017.6 |
| 20260510040241 | 60 | 294 | 1.7 | 2.6 | 0.00 | 0.00 | 0.00 | 95 | 1017.7 |
| 20260510035737 | 60 | 299 | 1.7 | 2.6 | 0.00 | 0.00 | 0.00 | 95 | 1017.5 |
| 20260510035233 | 60 | 302 | 1.7 | 2.6 | 0.00 | 0.00 | 0.00 | 94 | 1017.6 |
| 20260510034729 | 60 | 299 | 1.7 | 2.6 | 0.00 | 0.00 | 0.00 | 94 | 1017.6 |
| 20260510034227 | 60 | 297 | 1.7 | 2.6 | 0.00 | 0.00 | 0.00 | 94 | 1017.7 |
| 20260510033722 | 60 | 291 | 1.7 | 2.6 | 0.00 | 0.00 | 0.00 | 93 | 1017.6 |
| 20260510033221 | 61 | 297 | 1.7 | 2.6 | 0.00 | 0.00 | 0.00 | 93 | 1017.7 |
| 20260510032716 | 61 | 305 | 1.7 | 2.6 | 0.00 | 0.00 | 0.00 | 93 | 1017.5 |
| 20260510032212 | 61 | 300 | 1.7 | 2.6 | 0.00 | 0.00 | 0.00 | 93 | 1017.6 |
| 20260510031707 | 61 | 297 | 1.7 | 2.6 | 0.00 | 0.00 | 0.00 | 93 | 1017.7 |
| 20260510031204 | 61 | 298 | 1.7 | 2.6 | 0.00 | 0.00 | 0.00 | 93 | 1017.7 |
| 20260510030703 | 61 | 299 | 1.7 | 2.6 | 0.00 | 0.00 | 0.00 | 92 | 1017.7 |
| 20260510030202 | 62 | 289 | 1.7 | 2.6 | 0.00 | 0.00 | 0.00 | 92 | 1017.4 |
| 20260510025659 | 62 | 298 | 2.6 | 3.5 | 0.00 | 0.00 | 0.00 | 91 | 1017.6 |
| 20260510025155 | 62 | 299 | 2.6 | 2.6 | 0.00 | 0.00 | 0.00 | 90 | 1017.2 |
| 20260510024653 | 62 | 298 | 1.7 | 2.6 | 0.00 | 0.00 | 0.00 | 90 | 1017.2 |
| 20260510024149 | 62 | 293 | 1.7 | 2.6 | 0.00 | 0.00 | 0.00 | 90 | 1017.4 |
| 20260510023645 | 62 | 297 | 1.7 | 1.7 | 0.00 | 0.00 | 0.00 | 90 | 1017.2 |
| 20260510023143 | 62 | 293 | 0.9 | 1.7 | 0.00 | 0.00 | 0.00 | 90 | 1017.1 |
| 20260510022643 | 62 | 293 | 1.7 | 2.6 | 0.00 | 0.00 | 0.00 | 90 | 1017.1 |
| 20260510022138 | 63 | 290 | 1.7 | 2.6 | 0.00 | 0.00 | 0.00 | 89 | 1016.9 |
| 20260510021634 | 63 | 294 | 1.7 | 2.6 | 0.00 | 0.00 | 0.00 | 89 | 1017.1 |
| 20260510021131 | 63 | 295 | 1.7 | 3.5 | 0.00 | 0.00 | 0.00 | 88 | 1017.1 |
| 20260510020625 | 63 | 297 | 2.6 | 2.6 | 0.00 | 0.00 | 0.00 | 87 | 1016.9 |
| 20260510020121 | 64 | 288 | 1.7 | 1.7 | 0.00 | 0.00 | 0.00 | 87 | 1016.7 |
| 20260510015617 | 64 | 292 | 1.7 | 1.7 | 0.00 | 0.00 | 0.00 | 87 | 1016.5 |
| 20260510015108 | 64 | 298 | 1.7 | 1.7 | 0.00 | 0.00 | 0.00 | 87 | 1016.9 |
| 20260510014603 | 64 | 291 | 1.7 | 1.7 | 0.00 | 0.00 | 0.00 | 87 | 1016.6 |
| 20260510014101 | 64 | 288 | 0.9 | 1.7 | 0.00 | 0.00 | 0.00 | 87 | 1016.4 |
| 20260510013556 | 64 | 297 | 1.7 | 2.6 | 0.00 | 0.00 | 0.00 | 86 | 1016.4 |
| 20260510013052 | 65 | 286 | 1.7 | 1.7 | 0.00 | 0.00 | 0.00 | 86 | 1016.4 |
| 20260510012551 | 65 | 289 | 1.7 | 1.7 | 0.00 | 0.00 | 0.00 | 86 | 1016.3 |
| 20260510012048 | 65 | 290 | 1.7 | 1.7 | 0.00 | 0.00 | 0.00 | 86 | 1016.2 |
| 20260510011547 | 65 | 282 | 0.9 | 2.6 | 0.00 | 0.00 | 0.00 | 86 | 1016.1 |
| 20260510011043 | 66 | 298 | 0.9 | 1.7 | 0.00 | 0.00 | 0.00 | 85 | 1015.9 |
| 20260510010540 | 66 | 284 | 0.9 | 1.7 | 0.00 | 0.00 | 0.00 | 84 | 1015.7 |
| 20260510010037 | 66 | 287 | 0.9 | 1.7 | 0.00 | 0.00 | 0.00 | 83 | 1015.8 |
| 20260510005533 | 66 | 284 | 1.7 | 1.7 | 0.00 | 0.00 | 0.00 | 83 | 1015.7 |
| 20260510005031 | 67 | 285 | 0.9 | 1.7 | 0.00 | 0.00 | 0.00 | 82 | 1015.8 |
| 20260510004528 | 67 | 284 | 0.9 | 2.6 | 0.00 | 0.00 | 0.00 | 82 | 1015.7 |
| 20260510004026 | 67 | 274 | 0.9 | 1.7 | 0.00 | 0.00 | 0.00 | 81 | 1015.6 |
| 20260510003523 | 68 | 261 | 0.9 | 1.7 | 0.00 | 0.00 | 0.00 | 82 | 1015.3 |
| 20260510003018 | 68 | 270 | 0.9 | 1.7 | 0.00 | 0.00 | 0.00 | 80 | 1015.7 |
| 20260510002514 | 68 | 279 | 0.9 | 0.9 | 0.00 | 0.00 | 0.00 | 79 | 1015.4 |
| 20260510002011 | 69 | 280 | 0.9 | 0.9 | 0.00 | 0.00 | 0.00 | 78 | 1015.3 |
| 20260510001508 | 69 | 282 | 0.9 | 1.7 | 0.00 | 0.00 | 0.00 | 77 | 1015.0 |
| 20260510001007 | 69 | 253 | 0.0 | 0.9 | 0.00 | 0.00 | 0.00 | 77 | 1015.2 |
| 20260510000507 | 69 | 267 | 0.9 | 0.9 | 0.00 | 0.00 | 0.00 | 77 | 1015.0 |
| 20260510000004 | 70 | 278 | 0.9 | 1.7 | 0.00 | 0.00 | 0.00 | 76 | 1015.0 |
| 20260509235501 | 72 | 296 | 0.9 | 0.9 | 0.00 | 0.00 | 0.00 | 73 | 1015.2 |
| 20260509234956 | 72 | 189 | 0.0 | 0.9 | 0.00 | 0.00 | 0.00 | 70 | 1015.3 |
| 20260509234454 | 72 | 202 | 0.0 | 0.9 | 0.00 | 0.00 | 0.00 | 71 | 1015.1 |
| 20260509233952 | 73 | 170 | 0.0 | 0.0 | 0.00 | 0.00 | 0.00 | 69 | 1015.1 |